Simultaneous Nadir Overpasses (SNOs) Predictions

Prediction of SNOs between AQUA and METOP-B Satellite Orbit:

Table of predicted SNOs for the next 14.0 days since TLE Epoch: 12/15/2017
Index Date (AQUA) Time (AQUA) Lat,Lon (AQUA) SZA (AQUA ) Date (METOP-B) Time (METOP-B) Lat,Lon (METOP-B) SZA (METOP-B ) Distance(km) Time Diff (sec)
1 12/18/2017 14:47:33 73.76, -47.56 97.12 12/18/2017 14:46:20 73.71, -47.66 97.08 6.38 73
2 12/18/2017 15:37:00 -73.83, 119.94 82.81 12/18/2017 15:37:00 -73.81, 119.90 82.83 2.46 0
3 12/18/2017 16:26:29 73.91, -72.61 97.28 12/18/2017 16:27:38 73.89, -72.57 97.25 2.53 69
4 12/21/2017 10:21:50 73.75, 18.90 97.15 12/21/2017 10:20:42 73.74, 18.83 97.16 2.13 68
5 12/21/2017 11:11:17 -73.82,-173.61 82.78 12/21/2017 11:11:22 -73.85,-173.59 82.75 3.40 5
6 12/21/2017 12:00:47 73.95, -6.27 97.37 12/21/2017 12:01:59 73.97, -5.96 97.38 9.80 72
7 12/24/2017 05:56:07 73.75, 85.34 97.13 12/24/2017 05:55:04 73.78, 85.32 97.17 3.62 63
8 12/24/2017 06:45:34 -73.82,-107.17 82.80 12/24/2017 06:45:45 -73.84,-107.22 82.78 2.78 11
9 12/24/2017 07:35:08 74.15, 59.70 97.56 12/24/2017 07:36:18 74.15, 60.89 97.53 36.26 70
10 12/27/2017 01:30:23 73.75, 151.77 97.06 12/27/2017 01:29:26 73.76, 151.68 97.08 2.90 57
11 12/27/2017 02:19:50 -73.82, -40.74 82.87 12/27/2017 02:20:07 -73.82, -40.84 82.87 3.07 17
12 12/27/2017 03:09:28 74.36, 125.64 97.71 12/27/2017 03:10:35 74.38, 127.88 97.66 67.02 67
13 12/29/2017 21:04:40 73.76,-141.82 96.93 12/29/2017 21:03:48 73.79,-141.85 96.97 3.09 52




NCC Satellite Simultaneous Nadir Overpasses (SNOs) Prediction Service
